Weather in Khovrino

Russia / Ulyanovsk Oblast     54°06′40″N   47°10′24″E
temp.,
°C
wind,
m/s
gust,
m/s
humid.,
%
clouds,
%
prec.,
mm/h
press.,
hPa
HPBL,
m
21 january, thu
thu2101:00−21wsw359876 0.0 102179
04:00−20wsw359980 0.0 102194
07:00−18w499690 0.0 1021171
10:00−16w499577 0.0 1021209
13:00−11w5993100 0.1 1021346
16:00−10w51090100 0.1 1020383
19:00−12wsw51091100 0.1 1020307
22:00−12wsw5994100 0.2 1019329
22 january, fri
fri2201:00−12wsw5995100 0.9 1018352
04:00−13wsw3895100 1.4 1018309
07:00−16w3395100 0.0 101944
10:00−16w2295100 0.0 101921
13:00−11sw239099 0.0 1020221
16:00−11ssw119399 0.0 102022
19:00−11se229696 0.1 102154
22:00−11se369698 0.4 1022156
23 january, sat
sat2301:00−10se5895100 0.7 1022253
04:00−9sse4895100 1.2 1021240
07:00−8sse4895100 0.3 1021211
10:00−5s5995100 0.5 1020262
13:00+1sw611100100 0.4 1019377
16:00+1wsw511100100 0.4 1019500
19:00+1sw51194100 0.0 1020504
22:00+1sw41194100 0.0 1020522
24 january, sun
sun2401:00+1sw41196100 0.0 1021399
04:00+1sw51097100 0.0 1022355
07:00+1ssw4998100 0.0 1022282
10:00+1ssw510100100 0.3 1022340
13:00+1sw61296100 0.2 1023365
16:000ssw61284100 0.3 1023300
19:00−2ssw5128699 0.0 1024308
22:00−1ssw5118899 0.0 1025346
25 january, mon
mon2501:00−2ssw51191100 0.0 1025352
04:00−3ssw51095100 0.0 1026330
07:00−2s51093100 0.0 1026496
10:00−2sse51192100 0.0 1026729
13:00−2sse61192100 0.0 1025585
16:00−4sse61095100 0.1 1025461
19:00−4s51194100 0.1 1024547
22:00−3s51093100 0.1 1024613